Location: Kuala Selangor
(3.3500°N, 101.2500°E)
Time: 22:17:03
(UTC+00:00)

Daily predictions for brighter satellites

Satellite Brightness Start Highest point End
(mag) Time Altitude Azimuth Time Altitude Azimuth Time Altitude Azimuth
CZ-4B R/B 3.7 12:01:43 10° SSE 12:05:30 59° E 12:09:09 10° N
SPOT 1/Viking Rocket 4.3 12:01:38 10° SE 12:06:05 29° ENE 12:10:29 10° NNE
Cosmos 1943 3.2 12:01:09 10° S 12:06:49 76° ESE 12:12:28 10° NNE
Cosmos 1825 3.4 12:04:12 10° SSW 12:06:58 34° W 12:09:44 10° NNW
Ariane 3 Deb 2.1 12:03:29 10° W 12:07:00 72° N 12:09:46 15° E
Cosmos 2278 Rocket 2.2 12:01:44 10° N 12:07:18 64° ENE 12:12:52 10° SSE
SL-08 R/B 3.3 12:04:16 10° NNE 12:09:02 68° ESE 12:13:45 10° S
YAOGAN 1 2.6 12:05:14 10° SSE 12:09:25 55° ENE 12:13:35 10° N
Landsat 7 4.0 12:05:43 10° S 12:10:24 76° WSW 12:15:04 10° NNW
ARIANE 3 DEB 4.3 12:14:09 10° SSW 12:15:06 12° S 12:16:02 10° SSE
Ariane V96 H10-3 3.6 12:09:21 10° WSW 12:18:37 59° S 12:20:34 20° ESE
OAO 3 Rocket 3.8 12:14:11 10° WNW 12:18:43 56° SW 12:23:19 10° SE
RESURS DK-1 2.9 12:15:15 10° N 12:18:52 33° ENE 12:22:31 10° SE
USA 267 3.3 12:16:18 10° SE 12:22:52 87° SW 12:29:26 10° NW
Resurs 1-3 3.7 12:20:20 10° SSE 12:24:29 47° ENE 12:28:36 10° N
DELTA-4 R/B 3.7 12:07:59 10° WNW 12:24:29 81° SSW 12:27:30 18° ESE
ARIANE 6 FM1 Upper Stage 4.2 12:20:36 10° NW 12:24:43 41° WSW 12:28:52 10° S
Cosmos 1782 Rocket 4.3 12:26:12 26° ENE 12:27:22 30° E 12:31:11 10° SSE
Tiangong 0.7 12:25:26 10° W 12:27:53 20° SW 12:30:20 10° S
ACS3 Solar Sail 2.1 12:21:45 10° S 12:28:00 75° WSW 12:34:21 10° NNW
Helios 1A 3.2 12:27:06 26° NE 12:28:55 43° ESE 12:32:45 10° S
Cosmos 2084 Rocket 3.4 12:26:22 10° NNW 12:30:18 73° WSW 12:34:17 10° SSE
Cosmos 1328 3.9 12:27:46 10° SSE 12:31:21 43° E 12:32:13 36° NE
ARIANE 5 DEB (SYLDA) 2.3 12:25:50 10° W 12:32:15 80° N 12:33:21 39° E
Cosmos 1898 Rocket 3.5 12:37:20 10° NNW 12:42:38 87° W 12:47:57 10° SSE
CBERS 1 LM4 rocket 4.5 12:38:50 10° SSE 12:43:29 50° ENE 12:47:57 12° N
Spelda 30 2.9 12:42:16 10° WSW 12:44:34 42° S 12:44:48 41° SSE
Aureole 1 Rocket 4.0 12:39:14 10° NNW 12:45:42 71° W 12:50:49 10° S
SL-08 ROCKET BODY 4.3 12:40:29 10° S 12:46:23 62° E 12:50:14 23° NNE
Cosmos 1603 3.7 12:42:09 10° SSW 12:47:45 83° WNW 12:51:31 22° NNE
Resurs 01 Rocket 3.9 12:45:08 10° SE 12:45:15 11° SE 12:45:15 11° SE
COSMOS 2455 4.4 12:51:43 10° SSE 12:54:21 18° SE 12:54:21 18° SE
NOSS 3-2 (A) 3.5 12:51:41 10° S 12:55:26 35° SE 12:55:26 35° SE
SJ-6B 3.1 12:52:53 10° S 12:55:30 48° S 12:55:30 48° S
Cosmos 1570 Rocket 4.5 12:51:42 10° SSW 12:56:54 60° WNW 13:00:37 19° N
BREEZE M DEB (TANK) 2.8 12:55:36 10° SW 12:57:06 40° WSW 12:57:06 40° WSW
Milstar 3 Cent rocket 3.0 12:54:54 10° W 13:01:12 37° NNW 13:02:38 31° N
Cosmos 836 Rocket 4.4 12:57:39 10° SSW 13:02:49 81° WNW 13:04:27 44° N
Lacrosse 5 3.8 12:58:29 10° WNW 13:02:56 30° WSW 13:07:23 10° S
ARIANE 5 DEB (SYLDA) 3.9 12:51:29 10° W 13:04:08 70° N 13:05:21 55° NE
Cosmos 1300 Rocket 3.6 13:06:00 63° NW 13:06:34 75° W 13:10:55 10° S
Cosmos 1378 Rocket 3.5 13:02:27 10° S 13:06:44 77° W 13:06:48 77° WNW
ARIANE 5 R/B 2.8 13:04:22 10° W 13:06:04 23° W 13:06:04 23° W
Cosmos 2208 Rocket 4.4 13:07:13 10° SSW 13:12:23 59° WNW 13:14:05 39° NNW
USA 32 4.4 13:07:17 10° SSW 13:12:25 61° W 13:15:06 28° NNW
ARIANE 5 R/B 2.8 13:13:48 10° W 13:16:52 67° S 13:17:42 58° SE
USA 281 3.6 13:24:57 46° SE 13:24:57 46° SE 13:30:10 10° S
Iridium 4 Rocket 4.0 13:20:34 10° S 13:24:13 48° SSW 13:24:13 48° SSW
ARIANE 44LP R/B 3.7 13:14:38 10° W 13:27:50 76° WSW 13:27:50 76° WSW
CENTAUR R/B 3.4 13:27:02 10° SW 13:31:03 29° WNW 13:31:36 28° NW
Ariane H10 4.0 13:28:25 10° WSW 13:35:25 26° SSW 13:35:28 26° SSW
ARIANE 5 R/B 3.1 13:26:33 10° W 13:37:20 57° WSW 13:37:20 57° WSW
SEDSat Delta rocket 4.5 13:42:39 10° WSW 13:47:17 54° WSW 13:47:17 54° WSW
Ariane H10-3 4.4 13:47:06 10° WSW 14:06:31 58° SSW 14:06:31 58° SSW
Ariane H10+ 4.5 14:40:31 10° WSW 14:50:58 38° SW 14:50:58 38° SW
Atlas Centaur 2 3.5 20:40:32 54° ESE 20:40:32 54° ESE 20:46:42 10° ESE
SL-16 R/B 3.9 20:43:24 10° SSE 20:46:23 31° SSE 20:46:23 31° SSE
ATLAS 5 CENTAUR R/B 3.8 21:05:51 29° NE 21:07:45 34° ENE 21:14:04 10° SE
BLOCK-DM UPPERSTAGE 4.4 21:10:51 47° SE 21:10:51 47° SE 21:16:01 10° E
CZ-4C R/B 3.5 21:08:41 46° N 21:11:38 67° ENE 21:20:36 10° SSE
Cosmos 371 Rocket 4.3 21:21:38 10° S 21:26:11 43° ESE 21:30:46 10° NNE
Ariane H10 3.4 21:32:36 31° S 21:32:53 31° SSE 21:39:08 10° ESE
Cosmos 1816 Rocket 4.4 21:33:09 59° NNW 21:34:27 82° W 21:40:50 10° S
Cosmos 1980 3.9 21:36:16 42° N 21:38:05 67° ENE 21:43:43 10° SSE
Cosmos 1844 Rocket 3.7 21:35:22 10° S 21:40:44 46° ESE 21:46:04 10° NNE
Meteor 1-23 Rocket 4.5 21:40:03 22° N 21:43:47 67° E 21:49:28 10° SSE
IRAS Rocket 4.1 21:39:13 10° NNE 21:44:44 87° WNW 21:50:14 10° SSW
Cosmos 2227 4.1 21:39:54 10° SSW 21:45:32 89° ESE 21:51:11 10° NNE
Cosmos 1666 Rocket 3.4 21:41:35 10° S 21:45:58 84° E 21:46:15 76° NNE
ARGOS 3.5 21:51:50 43° WSW 21:51:50 43° WSW 21:55:58 10° SSW
SL-12 R/B(2) 3.9 21:44:33 10° SW 21:51:38 56° WNW 21:59:13 10° N
NOSS 0 Rocket 4.1 21:52:11 47° WNW 21:53:07 51° WSW 21:59:08 10° S
Meteor 1-13 Rocket 4.5 21:55:24 45° W 21:55:28 45° W 22:00:47 10° SSW
COSMOS 2428 4.1 21:57:00 22° SW 21:57:00 22° SW 22:00:03 10° SSW
Ariane H10+ 0.8 22:00:42 73° SSE 22:00:42 73° SSE 22:05:20 10° E
Cosmos 1300 4.1 21:58:01 10° SSE 22:01:03 32° E 22:04:03 10° NNE
Cosmos 1470 Rocket 4.2 21:56:52 10° S 22:01:13 56° E 22:05:33 10° NNE
ARIANE 44P R/B 2.1 22:04:10 59° WSW 22:04:41 81° S 22:10:50 10° E
Ariane 42P Rocket 3.8 22:06:34 13° SE 22:06:34 13° SE 22:06:52 10° SE
SL-4 R/B 1.3 22:08:55 67° NNW 22:08:55 67° NNW 22:11:59 10° NNE
ADEOS Rocket 4.0 22:02:05 10° NNE 22:08:45 59° ESE 22:16:04 10° S
Cosmos 1484 Rocket 4.5 22:11:41 17° SW 22:11:41 17° SW 22:12:42 10° SSW
GMS 1 Rocket B 4.4 22:08:32 45° NW 22:09:46 86° NNE 22:14:43 10° ESE
Cosmos 1891 Rocket 4.4 22:04:52 10° SSW 22:10:45 58° W 22:16:40 10° N
SL-08 RB Rocket 4.4 22:15:13 31° W 22:15:13 31° W 22:18:36 10° SW
JB-3 4.4 22:10:58 10° S 22:14:46 51° W 22:16:04 35° NW
Meteor 2-10 Rocket 4.0 22:17:15 10° S 22:22:12 61° E 22:27:17 10° NNE
ARIANE 5 R/B 3.4 22:17:54 10° NNE 22:22:45 51° ESE 22:27:34 10° S
Cosmos 304 Rocket 4.2 22:18:45 10° SW 22:23:05 36° WNW 22:27:24 10° N
CZ-3 R/B 3.4 22:02:02 10° WSW 22:23:55 40° NW 22:30:56 10° NNE
GPS 2-15 Rocket1 4.3 22:23:10 22° NW 22:24:08 23° NNW 22:27:47 10° NE
Cosmos 1844 3.6 22:21:16 10° SSW 22:26:49 64° WNW 22:32:25 10° N
Atlas Centaur 2 4.1 22:22:37 16° W 22:27:47 31° SSW 22:34:52 10° SSE
Ariane H10+ 3.3 22:25:14 19° W 22:28:25 82° S 22:43:17 10° E
Cosmos 1932 4.5 22:22:27 10° NNW 22:28:46 82° WSW 22:35:15 10° SSE
USA 290 2.4 22:27:26 10° S 22:30:33 70° ESE 22:33:40 10° NNE
ARIANE 5 R/B 4.1 22:28:34 14° WSW 22:31:29 52° S 22:46:53 10° E
Cosmos 2237 Rocket 2.9 22:29:03 20° NW 22:32:08 33° WSW 22:37:07 10° SSW
USA 81 4.4 22:28:52 10° NNW 22:33:50 43° W 22:38:48 10° SSW
Ariane H10+ 4.1 22:12:05 10° W 22:39:41 80° N 22:43:56 10° E
Stardust Del rocket 3.1 22:38:23 18° NW 22:40:45 50° NNE 22:43:14 10° E
DELTA 2 R/B (1) 4.4 22:37:16 10° NNW 22:42:36 47° NE 22:47:56 10° ESE
USA 276 1.5 22:40:29 11° SW 22:42:38 42° NW 22:44:41 10° NNE
Cosmos 405 Rocket 2.9 22:44:38 10° SSW 22:47:47 36° W 22:50:56 10° NNW
Cosmos 1486 Rocket 4.2 22:43:41 10° S 22:48:53 79° ESE 22:54:05 10° NNE
ATLAS 5 CENTAUR R/B 3.7 22:46:11 12° WNW 22:51:04 28° WSW 22:57:03 10° S
Cosmos 2228 Rocket 3.1 22:47:41 10° NNW 22:52:06 65° W 22:56:30 10° S
COSMO-SKYMED 1 2.7 22:51:01 10° SSE 22:55:21 81° E 22:59:41 10° N
Cosmos 1758 3.1 22:52:53 10° SSW 22:56:35 62° W 23:00:15 10° N
IRS-P3 4.1 22:54:40 10° N 22:59:59 80° WNW 23:05:19 10° SSW
Okean 1-7 3.2 22:58:20 10° N 23:02:28 75° E 23:06:36 10° S
IRS-1C 4.3 22:58:24 10° N 23:03:30 49° WNW 23:08:36 10° SSW
Cosmos 841 Rocket 4.0 23:02:10 10° NW 23:06:53 37° WSW 23:11:35 10° S
